User: anonymous   Login
Location: Shell Point
(30.0571°N, 84.2896°W)
Time: 02:11:27
(UTC-04:00)
Language:

Meteor 2-19 Rocket - Orbit

View from above orbital plane
View from above orbital plane
View from above satellite
View from above satellite

Ground track
Ground track

The orbit data is extracted from the following two-line orbital elements,

1 20671U 90057B   15124.78914138  .00000012  00000-0 -22658-5 0  9993
2 20671 082.5460 267.6497 0014628 336.9407 120.2674 13.84589496255907
Epoch (UTC): 04 May 2015 18:56:21
Eccentricity: 0.0014628
inclination: 82.5460°
perigee height: 937 km
apogee height: 958 km
right ascension of ascending node: 267.6497°
argument of perigee: 336.9407°
revolutions per day: 13.84589496
mean anomaly at epoch: 120.2674°
orbit number at epoch: 25590

The dashed part of the orbit path shows where the satellite is in the earth's shadow,  

DLR